Regional Weather Roundup
Issued by NWS Memphis, TN

Home | Current Version | Previous Version | Text Only | Print | Product List | Glossary On
Versions: 1 2 3 4 5 6 7 8 9 10 11 12 13 14 15 16 17 18 19 20 21 22 23 24 25 26 27 28 29 30 31 32 33 34 35 36 37 38 39 40 41 42 43 44 45 46 47 48 49 50
000
ASUS44 KMEG 302100
RWRMEG
MEMPHIS CWA HOURLY WEATHER ROUNDUP
NATIONAL WEATHER SERVICE MEMPHIS TN
400 PM CDT MON MAY 30 2016

...WEST TENNESSEE...

CITY           SKY/WX    TMP DP  RH WIND       PRES   REMARKS
MEMPHIS INTL   MOSUNNY   88  61  40 VRB7      29.99F
NWS MEMPHIS      N/A     87 N/A N/A MISG        N/A
JACKSON        MOSUNNY   88  59  37 NE8       29.99F
LEXINGTON      SUNNY     84  55  37 N7        29.99F
DYERSBURG      MOSUNNY   84  59  42 SE5       29.99F
UNION CITY     SUNNY     88  59  37 CALM      29.98F
PARIS          MOSUNNY   84  61  45 VRB5      30.01F


...EASTERN ARKANSAS...

CITY           SKY/WX    TMP DP  RH WIND       PRES   REMARKS
JONESBORO        N/A     87  63  44 E7        29.99F
WEST MEMPHIS   MOSUNNY   88  61  40 N5        29.97F
BATESVILLE     CLOUDY    73  66  78 NW6       30.02F
WALNUT RIDGE   CLOUDY    84  63  48 SE5       29.99F
BLYTHEVILLE    MOSUNNY   88  60  38 SE5       29.99F
SEARCY         CLOUDY    88  66  48 SE3       30.00F HX  90
STUTTGART      CLOUDY    86  64  48 S6        29.99F
PINE BLUFF     CLOUDY    85  70  60 E5        29.97F
MONTICELLO     CLOUDY    88  68  51 E5        29.96F HX  91


...NORTH MISSISSIPPI...

CITY           SKY/WX    TMP DP  RH WIND       PRES   REMARKS
TUPELO         PTSUNNY   92  60  34 NW6       29.97F HX  91
TUNICA         PTSUNNY   86  63  45 CALM      29.98F
CLARKSDALE     MOSUNNY   88  68  51 NW5       29.98F HX  91
GREENWOOD      MOSUNNY   92  63  38 N7        29.95F HX  93
STARKVILLE     SUNNY     91  59  33 CALM      29.95F HX  90
GOLDEN TRIANGL MOSUNNY   93  63  36 NW9       29.96F HX  94


...SOUTHEAST MISSOURI...

CITY           SKY/WX    TMP DP  RH WIND       PRES   REMARKS
KENNETT        SUNNY     88  57  35 VRB5      29.98F
WEST PLAINS    PTSUNNY   78  63  59 S5        30.05S
POPLAR BLUFF   SUNNY     85  61  44 E5        30.00F
CAPE GIRARDEAU CLOUDY    86  58  38 VRB3      29.99F


...NORTHWEST ALABAMA...

CITY           SKY/WX    TMP DP  RH WIND       PRES   REMARKS
MUSCLE SHOALS  SUNNY     90  59  35 VRB5      29.98F


...MIDDLE TENNESSEE...

CITY           SKY/WX    TMP DP  RH WIND       PRES   REMARKS
NASHVILLE      MOSUNNY   90  55  30 N7        30.00F
CLARKSVILLE    SUNNY     85  58  39 NW6       30.00F
COLUMBIA       SUNNY     88  59  37 VRB7      29.98F


...WESTERN KENTUCKY...

CITY           SKY/WX    TMP DP  RH WIND       PRES   REMARKS
PADUCAH        SUNNY     87  59  38 CALM      29.99F


...CENTRAL ARKANSAS...

CITY           SKY/WX    TMP DP  RH WIND       PRES   REMARKS
LITTLE ROCK    CLOUDY    83  68  60 S6        29.98F


SKY/WX REPORTED AS FAIR MEANS FEW OR NO CLOUDS BELOW
12 THOUSAND FEET.




USA.gov is the U.S. government's official web portal to all federal, state and local government web resources and services.